Year,Month,Day,Hour,Minute,Value (Times are PST for insolation in W/m^2)
2010,07,01,00,00,0.00
2010,07,01,00,01,0.00
2010,07,01,00,02,0.00
2010,07,01,00,03,0.00
2010,07,01,00,04,0.00
2010,07,01,00,05,0.00
2010,07,01,00,06,0.00
2010,07,01,00,07,0.00
2010,07,01,00,08,0.00
2010,07,01,00,09,0.00
2010,07,01,00,10,0.00
2010,07,01,00,11,0.00
2010,07,01,00,12,0.00
2010,07,01,00,13,0.00
2010,07,01,00,14,0.00
2010,07,01,00,15,0.00
2010,07,01,00,16,0.00
2010,07,01,00,17,0.00
2010,07,01,00,18,0.00
2010,07,01,00,19,0.00
2010,07,01,00,20,0.00
2010,07,01,00,21,0.00
2010,07,01,00,22,0.00
2010,07,01,00,23,0.00
2010,07,01,00,24,0.00
2010,07,01,00,25,0.00
2010,07,01,00,26,0.00
2010,07,01,00,27,0.00
2010,07,01,00,28,0.00
2010,07,01,00,29,0.00
2010,07,01,00,30,0.00
2010,07,01,00,31,0.00
2010,07,01,00,32,0.00
2010,07,01,00,33,0.00
2010,07,01,00,34,0.00
2010,07,01,00,35,0.00
2010,07,01,00,36,0.00
2010,07,01,00,37,0.00
2010,07,01,00,38,0.00
2010,07,01,00,39,0.00
2010,07,01,00,40,0.00
2010,07,01,00,41,0.00
2010,07,01,00,42,0.00
2010,07,01,00,43,0.00
2010,07,01,00,44,0.00
2010,07,01,00,45,0.00
2010,07,01,00,46,0.00
2010,07,01,00,47,0.00
2010,07,01,00,48,0.00
2010,07,01,00,49,0.00
2010,07,01,00,50,0.00
2010,07,01,00,51,0.00
2010,07,01,00,52,0.00
2010,07,01,00,53,0.00
2010,07,01,00,54,0.00
2010,07,01,00,55,0.00
2010,07,01,00,56,0.00
2010,07,01,00,57,0.00
2010,07,01,00,58,0.00
2010,07,01,00,59,0.00
2010,07,01,01,00,0.00
2010,07,01,01,01,0.00
2010,07,01,01,02,0.00
2010,07,01,01,03,0.00
2010,07,01,01,04,0.00
2010,07,01,01,05,0.00
2010,07,01,01,06,0.00
2010,07,01,01,07,0.00
2010,07,01,01,08,0.00
2010,07,01,01,09,0.00
2010,07,01,01,10,0.00
2010,07,01,01,11,0.00
2010,07,01,01,12,0.00
2010,07,01,01,13,0.00
2010,07,01,01,14,0.00
2010,07,01,01,15,0.00
2010,07,01,01,16,0.00
2010,07,01,01,17,0.00
2010,07,01,01,18,0.00
2010,07,01,01,19,0.00
2010,07,01,01,20,0.00
2010,07,01,01,21,0.00
2010,07,01,01,22,0.00
2010,07,01,01,23,0.00
2010,07,01,01,24,0.00
2010,07,01,01,25,0.00
2010,07,01,01,26,0.00
2010,07,01,01,27,0.00
2010,07,01,01,28,0.00
2010,07,01,01,29,0.00
2010,07,01,01,30,0.00
2010,07,01,01,31,0.00
2010,07,01,01,32,0.00
2010,07,01,01,33,0.00
2010,07,01,01,34,0.00
2010,07,01,01,35,0.00
2010,07,01,01,36,0.00
2010,07,01,01,37,0.00
2010,07,01,01,38,0.00
2010,07,01,01,39,0.00
2010,07,01,01,40,0.00
2010,07,01,01,41,0.00
2010,07,01,01,42,0.00
2010,07,01,01,43,0.00
2010,07,01,01,44,0.00
2010,07,01,01,45,0.00
2010,07,01,01,46,0.00
2010,07,01,01,47,0.00
2010,07,01,01,48,0.00
2010,07,01,01,49,0.00
2010,07,01,01,50,0.00
2010,07,01,01,51,0.00
2010,07,01,01,52,0.00
2010,07,01,01,53,0.00
2010,07,01,01,54,0.00
2010,07,01,01,55,0.00
2010,07,01,01,56,0.00
2010,07,01,01,57,0.00
2010,07,01,01,58,0.00
2010,07,01,01,59,0.00
2010,07,01,02,00,0.00
2010,07,01,02,01,0.00
2010,07,01,02,02,0.00
2010,07,01,02,03,0.00
2010,07,01,02,04,0.00
2010,07,01,02,05,0.00
2010,07,01,02,06,0.00
2010,07,01,02,07,0.00
2010,07,01,02,08,0.00
2010,07,01,02,09,0.00
2010,07,01,02,10,0.00
2010,07,01,02,11,0.00
2010,07,01,02,12,0.00
2010,07,01,02,13,0.00
2010,07,01,02,14,0.00
2010,07,01,02,15,0.00
2010,07,01,02,16,0.00
2010,07,01,02,17,0.00
2010,07,01,02,18,0.00
2010,07,01,02,19,0.00
2010,07,01,02,20,0.00
2010,07,01,02,21,0.00
2010,07,01,02,22,0.00
2010,07,01,02,23,0.00
2010,07,01,02,24,0.00
2010,07,01,02,25,0.00
2010,07,01,02,26,0.00
2010,07,01,02,27,0.00
2010,07,01,02,28,0.00
2010,07,01,02,29,0.00
2010,07,01,02,30,0.00
2010,07,01,02,31,0.00
2010,07,01,02,32,0.00
2010,07,01,02,33,0.00
2010,07,01,02,34,0.00
2010,07,01,02,35,0.00
2010,07,01,02,36,0.00
2010,07,01,02,37,0.00
2010,07,01,02,38,0.00
2010,07,01,02,39,0.00
2010,07,01,02,40,0.00
2010,07,01,02,41,0.00
2010,07,01,02,42,0.00
2010,07,01,02,43,0.00
2010,07,01,02,44,0.00
2010,07,01,02,45,0.00
2010,07,01,02,46,0.00
2010,07,01,02,47,0.00
2010,07,01,02,48,0.00
2010,07,01,02,49,0.00
2010,07,01,02,50,0.00
2010,07,01,02,51,0.00
2010,07,01,02,52,0.00
2010,07,01,02,53,0.00
2010,07,01,02,54,0.00
2010,07,01,02,55,0.00
2010,07,01,02,56,0.00
2010,07,01,02,57,0.00
2010,07,01,02,58,0.00
2010,07,01,02,59,0.00
2010,07,01,03,00,0.00
2010,07,01,03,01,0.00
2010,07,01,03,02,0.00
2010,07,01,03,03,0.00
2010,07,01,03,04,0.00
2010,07,01,03,05,0.00
2010,07,01,03,06,0.00
2010,07,01,03,07,0.00
2010,07,01,03,08,0.00
2010,07,01,03,09,0.00
2010,07,01,03,10,0.00
2010,07,01,03,11,0.00
2010,07,01,03,12,0.00
2010,07,01,03,13,0.00
2010,07,01,03,14,0.00
2010,07,01,03,15,0.00
2010,07,01,03,16,0.00
2010,07,01,03,17,0.00
2010,07,01,03,18,0.00
2010,07,01,03,19,0.00
2010,07,01,03,20,0.00
2010,07,01,03,21,0.00
2010,07,01,03,22,0.00
2010,07,01,03,23,0.00
2010,07,01,03,24,0.00
2010,07,01,03,25,0.00
2010,07,01,03,26,0.00
2010,07,01,03,27,0.00
2010,07,01,03,28,0.00
2010,07,01,03,29,0.00
2010,07,01,03,30,0.00
2010,07,01,03,31,0.00
2010,07,01,03,32,0.00
2010,07,01,03,33,0.00
2010,07,01,03,34,0.00
2010,07,01,03,35,0.00
2010,07,01,03,36,0.00
2010,07,01,03,37,0.00
2010,07,01,03,38,0.00
2010,07,01,03,39,0.00
2010,07,01,03,40,0.00
2010,07,01,03,41,0.00
2010,07,01,03,42,0.00
2010,07,01,03,43,0.00
2010,07,01,03,44,0.00
2010,07,01,03,45,0.00
2010,07,01,03,46,0.00
2010,07,01,03,47,0.00
2010,07,01,03,48,0.00
2010,07,01,03,49,0.00
2010,07,01,03,50,0.00
2010,07,01,03,51,0.00
2010,07,01,03,52,0.00
2010,07,01,03,53,0.00
2010,07,01,03,54,0.00
2010,07,01,03,55,0.00
2010,07,01,03,56,0.00
2010,07,01,03,57,0.00
2010,07,01,03,58,0.00
2010,07,01,03,59,0.00
2010,07,01,04,00,0.00
2010,07,01,04,01,0.00
2010,07,01,04,02,0.00
2010,07,01,04,03,0.00
2010,07,01,04,04,0.00
2010,07,01,04,05,0.00
2010,07,01,04,06,0.00
2010,07,01,04,07,0.00
2010,07,01,04,08,0.00
2010,07,01,04,09,0.00
2010,07,01,04,10,0.00
2010,07,01,04,11,0.00
2010,07,01,04,12,0.00
2010,07,01,04,13,0.00
2010,07,01,04,14,0.00
2010,07,01,04,15,0.00
2010,07,01,04,16,0.00
2010,07,01,04,17,0.00
2010,07,01,04,18,0.00
2010,07,01,04,19,0.00
2010,07,01,04,20,0.00
2010,07,01,04,21,0.00
2010,07,01,04,22,0.00
2010,07,01,04,23,0.00
2010,07,01,04,24,0.00
2010,07,01,04,25,0.00
2010,07,01,04,26,0.00
2010,07,01,04,27,0.00
2010,07,01,04,28,0.00
2010,07,01,04,29,0.00
2010,07,01,04,30,0.00
2010,07,01,04,31,0.00
2010,07,01,04,32,0.00
2010,07,01,04,33,0.00
2010,07,01,04,34,0.00
2010,07,01,04,35,0.00
2010,07,01,04,36,0.00
2010,07,01,04,37,0.00
2010,07,01,04,38,0.00
2010,07,01,04,39,0.00
2010,07,01,04,40,0.00
2010,07,01,04,41,0.00
2010,07,01,04,42,0.00
2010,07,01,04,43,0.00
2010,07,01,04,44,0.00
2010,07,01,04,45,0.00
2010,07,01,04,46,0.00
2010,07,01,04,47,0.00
2010,07,01,04,48,0.00
2010,07,01,04,49,0.00
2010,07,01,04,50,0.00
2010,07,01,04,51,0.00
2010,07,01,04,52,0.00
2010,07,01,04,53,0.00
2010,07,01,04,54,0.00
2010,07,01,04,55,0.00
2010,07,01,04,56,0.00
2010,07,01,04,57,0.00
2010,07,01,04,58,0.00
2010,07,01,04,59,0.00
2010,07,01,05,00,0.00
2010,07,01,05,01,0.00
2010,07,01,05,02,0.00
2010,07,01,05,03,0.00
2010,07,01,05,04,0.00
2010,07,01,05,05,0.00
2010,07,01,05,06,0.00
2010,07,01,05,07,0.00
2010,07,01,05,08,0.00
2010,07,01,05,09,0.00
2010,07,01,05,10,0.00
2010,07,01,05,11,0.00
2010,07,01,05,12,0.00
2010,07,01,05,13,0.00
2010,07,01,05,14,0.00
2010,07,01,05,15,0.00
2010,07,01,05,16,0.00
2010,07,01,05,17,0.00
2010,07,01,05,18,0.00
2010,07,01,05,19,0.00
2010,07,01,05,20,0.00
2010,07,01,05,21,0.00
2010,07,01,05,22,0.00
2010,07,01,05,23,0.00
2010,07,01,05,24,0.00
2010,07,01,05,25,0.00
2010,07,01,05,26,0.00
2010,07,01,05,27,0.00
2010,07,01,05,28,0.00
2010,07,01,05,29,0.00
2010,07,01,05,30,0.00
2010,07,01,05,31,0.00
2010,07,01,05,32,0.00
2010,07,01,05,33,0.00
2010,07,01,05,34,0.00
2010,07,01,05,35,0.00
2010,07,01,05,36,2.60
2010,07,01,05,37,5.00
2010,07,01,05,38,5.00
2010,07,01,05,39,5.00
2010,07,01,05,40,5.00
2010,07,01,05,41,5.80
2010,07,01,05,42,7.00
2010,07,01,05,43,7.00
2010,07,01,05,44,7.00
2010,07,01,05,45,9.00
2010,07,01,05,46,9.00
2010,07,01,05,47,9.80
2010,07,01,05,48,11.00
2010,07,01,05,49,11.00
2010,07,01,05,50,11.00
2010,07,01,05,51,12.00
2010,07,01,05,52,12.00
2010,07,01,05,53,12.00
2010,07,01,05,54,13.20
2010,07,01,05,55,14.00
2010,07,01,05,56,14.00
2010,07,01,05,57,16.00
2010,07,01,05,58,16.00
2010,07,01,05,59,17.00
2010,07,01,06,00,18.00
2010,07,01,06,01,18.80
2010,07,01,06,02,19.00
2010,07,01,06,03,21.00
2010,07,01,06,04,21.70
2010,07,01,06,05,23.90
2010,07,01,06,06,25.00
2010,07,01,06,07,25.80
2010,07,01,06,08,26.10
2010,07,01,06,09,28.00
2010,07,01,06,10,28.70
2010,07,01,06,11,30.00
2010,07,01,06,12,31.30
2010,07,01,06,13,32.00
2010,07,01,06,14,32.00
2010,07,01,06,15,32.00
2010,07,01,06,16,32.30
2010,07,01,06,17,33.00
2010,07,01,06,18,33.00
2010,07,01,06,19,33.00
2010,07,01,06,20,34.80
2010,07,01,06,21,35.00
2010,07,01,06,22,35.00
2010,07,01,06,23,35.00
2010,07,01,06,24,36.40
2010,07,01,06,25,37.00
2010,07,01,06,26,39.10
2010,07,01,06,27,40.00
2010,07,01,06,28,40.80
2010,07,01,06,29,43.10
2010,07,01,06,30,44.00
2010,07,01,06,31,45.70
2010,07,01,06,32,46.10
2010,07,01,06,33,47.00
2010,07,01,06,34,47.90
2010,07,01,06,35,49.00
2010,07,01,06,36,49.00
2010,07,01,06,37,50.70
2010,07,01,06,38,51.00
2010,07,01,06,39,51.00
2010,07,01,06,40,51.00
2010,07,01,06,41,51.00
2010,07,01,06,42,51.00
2010,07,01,06,43,51.00
2010,07,01,06,44,50.60
2010,07,01,06,45,49.00
2010,07,01,06,46,49.00
2010,07,01,06,47,49.00
2010,07,01,06,48,49.00
2010,07,01,06,49,48.90
2010,07,01,06,50,47.00
2010,07,01,06,51,47.00
2010,07,01,06,52,47.00
2010,07,01,06,53,47.00
2010,07,01,06,54,48.50
2010,07,01,06,55,49.20
2010,07,01,06,56,51.40
2010,07,01,06,57,53.40
2010,07,01,06,58,54.00
2010,07,01,06,59,56.70
2010,07,01,07,00,59.60
2010,07,01,07,01,61.90
2010,07,01,07,02,63.50
2010,07,01,07,03,66.60
2010,07,01,07,04,69.60
2010,07,01,07,05,72.90
2010,07,01,07,06,75.70
2010,07,01,07,07,79.20
2010,07,01,07,08,81.50
2010,07,01,07,09,83.40
2010,07,01,07,10,85.10
2010,07,01,07,11,87.50
2010,07,01,07,12,89.70
2010,07,01,07,13,90.00
2010,07,01,07,14,90.00
2010,07,01,07,15,90.00
2010,07,01,07,16,90.60
2010,07,01,07,17,91.00
2010,07,01,07,18,91.00
2010,07,01,07,19,91.00
2010,07,01,07,20,91.00
2010,07,01,07,21,90.50
2010,07,01,07,22,90.00
2010,07,01,07,23,90.00
2010,07,01,07,24,90.00
2010,07,01,07,25,87.70
2010,07,01,07,26,86.00
2010,07,01,07,27,85.00
2010,07,01,07,28,84.00
2010,07,01,07,29,84.00
2010,07,01,07,30,84.00
2010,07,01,07,31,84.00
2010,07,01,07,32,84.00
2010,07,01,07,33,84.90
2010,07,01,07,34,86.00
2010,07,01,07,35,87.60
2010,07,01,07,36,88.00
2010,07,01,07,37,88.30
2010,07,01,07,38,90.00
2010,07,01,07,39,90.00
2010,07,01,07,40,90.00
2010,07,01,07,41,90.80
2010,07,01,07,42,91.00
2010,07,01,07,43,91.50
2010,07,01,07,44,93.80
2010,07,01,07,45,95.00
2010,07,01,07,46,96.40
2010,07,01,07,47,97.80
2010,07,01,07,48,98.20
2010,07,01,07,49,100.00
2010,07,01,07,50,100.00
2010,07,01,07,51,100.00
2010,07,01,07,52,101.40
2010,07,01,07,53,102.00
2010,07,01,07,54,102.30
2010,07,01,07,55,104.30
2010,07,01,07,56,105.00
2010,07,01,07,57,107.40
2010,07,01,07,58,110.50
2010,07,01,07,59,112.70
2010,07,01,08,00,114.00
2010,07,01,08,01,114.00
2010,07,01,08,02,114.00
2010,07,01,08,03,113.40
2010,07,01,08,04,113.00
2010,07,01,08,05,107.60
2010,07,01,08,06,103.50
2010,07,01,08,07,99.00
2010,07,01,08,08,95.00
2010,07,01,08,09,91.10
2010,07,01,08,10,86.90
2010,07,01,08,11,84.20
2010,07,01,08,12,83.00
2010,07,01,08,13,83.00
2010,07,01,08,14,83.00
2010,07,01,08,15,83.00
2010,07,01,08,16,83.00
2010,07,01,08,17,83.00
2010,07,01,08,18,83.00
2010,07,01,08,19,83.00
2010,07,01,08,20,83.00
2010,07,01,08,21,81.60
2010,07,01,08,22,81.00
2010,07,01,08,23,81.00
2010,07,01,08,24,81.00
2010,07,01,08,25,81.00
2010,07,01,08,26,81.00
2010,07,01,08,27,81.00
2010,07,01,08,28,82.60
2010,07,01,08,29,83.10
2010,07,01,08,30,84.00
2010,07,01,08,31,84.00
2010,07,01,08,32,85.00
2010,07,01,08,33,86.00
2010,07,01,08,34,87.60
2010,07,01,08,35,88.00
2010,07,01,08,36,88.00
2010,07,01,08,37,88.00
2010,07,01,08,38,88.00
2010,07,01,08,39,89.50
2010,07,01,08,40,90.00
2010,07,01,08,41,91.00
2010,07,01,08,42,91.50
2010,07,01,08,43,93.00
2010,07,01,08,44,94.20
2010,07,01,08,45,95.00
2010,07,01,08,46,95.00
2010,07,01,08,47,97.00
2010,07,01,08,48,97.00
2010,07,01,08,49,97.40
2010,07,01,08,50,99.20
2010,07,01,08,51,103.10
2010,07,01,08,52,109.00
2010,07,01,08,53,113.50
2010,07,01,08,54,117.50
2010,07,01,08,55,121.50
2010,07,01,08,56,124.20
2010,07,01,08,57,126.60
2010,07,01,08,58,127.00
2010,07,01,08,59,128.40
2010,07,01,09,00,130.00
2010,07,01,09,01,131.00
2010,07,01,09,02,132.00
2010,07,01,09,03,130.40
2010,07,01,09,04,129.80
2010,07,01,09,05,128.00
2010,07,01,09,06,127.60
2010,07,01,09,07,125.90
2010,07,01,09,08,122.30
2010,07,01,09,09,118.40
2010,07,01,09,10,112.60
2010,07,01,09,11,108.50
2010,07,01,09,12,107.00
2010,07,01,09,13,107.00
2010,07,01,09,14,108.30
2010,07,01,09,15,112.40
2010,07,01,09,16,116.60
2010,07,01,09,17,120.80
2010,07,01,09,18,124.80
2010,07,01,09,19,128.70
2010,07,01,09,20,132.90
2010,07,01,09,21,136.60
2010,07,01,09,22,141.00
2010,07,01,09,23,143.10
2010,07,01,09,24,148.50
2010,07,01,09,25,149.00
2010,07,01,09,26,148.30
2010,07,01,09,27,148.00
2010,07,01,09,28,148.10
2010,07,01,09,29,149.00
2010,07,01,09,30,150.00
2010,07,01,09,31,152.30
2010,07,01,09,32,155.30
2010,07,01,09,33,158.00
2010,07,01,09,34,162.50
2010,07,01,09,35,166.30
2010,07,01,09,36,170.00
2010,07,01,09,37,171.60
2010,07,01,09,38,173.50
2010,07,01,09,39,175.90
2010,07,01,09,40,176.00
2010,07,01,09,41,175.30
2010,07,01,09,42,173.00
2010,07,01,09,43,171.30
2010,07,01,09,44,171.00
2010,07,01,09,45,172.30
2010,07,01,09,46,176.70
2010,07,01,09,47,181.30
2010,07,01,09,48,186.60
2010,07,01,09,49,191.30
2010,07,01,09,50,196.50
2010,07,01,09,51,198.90
2010,07,01,09,52,200.80
2010,07,01,09,53,206.40
2010,07,01,09,54,209.10
2010,07,01,09,55,212.40
2010,07,01,09,56,213.90
2010,07,01,09,57,213.90
2010,07,01,09,58,213.00
2010,07,01,09,59,212.20
2010,07,01,10,00,211.00
2010,07,01,10,01,209.50
2010,07,01,10,02,207.20
2010,07,01,10,03,207.30
2010,07,01,10,04,209.60
2010,07,01,10,05,212.40
2010,07,01,10,06,214.00
2010,07,01,10,07,218.60
2010,07,01,10,08,220.90
2010,07,01,10,09,220.80
2010,07,01,10,10,220.00
2010,07,01,10,11,218.20
2010,07,01,10,12,216.00
2010,07,01,10,13,214.40
2010,07,01,10,14,215.80
2010,07,01,10,15,218.40
2010,07,01,10,16,221.00
2010,07,01,10,17,226.00
2010,07,01,10,18,233.60
2010,07,01,10,19,241.70
2010,07,01,10,20,251.50
2010,07,01,10,21,262.50
2010,07,01,10,22,274.60
2010,07,01,10,23,286.50
2010,07,01,10,24,298.50
2010,07,01,10,25,306.90
2010,07,01,10,26,317.80
2010,07,01,10,27,327.00
2010,07,01,10,28,338.30
2010,07,01,10,29,345.00
2010,07,01,10,30,361.40
2010,07,01,10,31,380.50
2010,07,01,10,32,399.90
2010,07,01,10,33,409.80
2010,07,01,10,34,421.00
2010,07,01,10,35,429.00
2010,07,01,10,36,429.00
2010,07,01,10,37,433.30
2010,07,01,10,38,405.20
2010,07,01,10,39,421.30
2010,07,01,10,40,398.10
2010,07,01,10,41,380.20
2010,07,01,10,42,369.70
2010,07,01,10,43,362.80
2010,07,01,10,44,360.00
2010,07,01,10,45,360.00
2010,07,01,10,46,358.60
2010,07,01,10,47,353.00
2010,07,01,10,48,348.60
2010,07,01,10,49,352.50
2010,07,01,10,50,354.60
2010,07,01,10,51,362.60
2010,07,01,10,52,365.00
2010,07,01,10,53,366.60
2010,07,01,10,54,363.10
2010,07,01,10,55,362.10
2010,07,01,10,56,364.00
2010,07,01,10,57,365.00
2010,07,01,10,58,370.00
2010,07,01,10,59,382.50
2010,07,01,11,00,376.80
2010,07,01,11,01,374.40
2010,07,01,11,02,381.50
2010,07,01,11,03,373.50
2010,07,01,11,04,373.50
2010,07,01,11,05,378.00
2010,07,01,11,06,388.80
2010,07,01,11,07,396.60
2010,07,01,11,08,397.50
2010,07,01,11,09,400.60
2010,07,01,11,10,403.50
2010,07,01,11,11,405.40
2010,07,01,11,12,418.10
2010,07,01,11,13,420.60
2010,07,01,11,14,424.50
2010,07,01,11,15,416.70
2010,07,01,11,16,419.00
2010,07,01,11,17,423.90
2010,07,01,11,18,432.70
2010,07,01,11,19,439.50
2010,07,01,11,20,442.50
2010,07,01,11,21,441.00
2010,07,01,11,22,442.20
2010,07,01,11,23,444.50
2010,07,01,11,24,445.90
2010,07,01,11,25,448.80
2010,07,01,11,26,454.90
2010,07,01,11,27,457.00
2010,07,01,11,28,457.00
2010,07,01,11,29,460.80
2010,07,01,11,30,472.00
2010,07,01,11,31,471.70
2010,07,01,11,32,475.90
2010,07,01,11,33,478.00
2010,07,01,11,34,479.30
2010,07,01,11,35,486.70
2010,07,01,11,36,510.50
2010,07,01,11,37,554.30
2010,07,01,11,38,625.40
2010,07,01,11,39,709.50
2010,07,01,11,40,778.10
2010,07,01,11,41,801.50
2010,07,01,11,42,847.90
2010,07,01,11,43,789.00
2010,07,01,11,44,826.10
2010,07,01,11,45,929.60
2010,07,01,11,46,924.10
2010,07,01,11,47,905.00
2010,07,01,11,48,770.30
2010,07,01,11,49,810.00
2010,07,01,11,50,730.20
2010,07,01,11,51,648.80
2010,07,01,11,52,677.00
2010,07,01,11,53,580.40
2010,07,01,11,54,610.00
2010,07,01,11,55,574.80
2010,07,01,11,56,485.30
2010,07,01,11,57,516.30
2010,07,01,11,58,538.10
2010,07,01,11,59,541.00
2010,07,01,12,00,510.10
2010,07,01,12,01,528.70
2010,07,01,12,02,553.70
2010,07,01,12,03,575.00
2010,07,01,12,04,566.40
2010,07,01,12,05,579.50
2010,07,01,12,06,537.20
2010,07,01,12,07,496.50
2010,07,01,12,08,456.90
2010,07,01,12,09,450.80
2010,07,01,12,10,453.80
2010,07,01,12,11,466.30
2010,07,01,12,12,493.70
2010,07,01,12,13,486.60
2010,07,01,12,14,468.30
2010,07,01,12,15,457.30
2010,07,01,12,16,454.20
2010,07,01,12,17,454.00
2010,07,01,12,18,456.10
2010,07,01,12,19,463.80
2010,07,01,12,20,474.50
2010,07,01,12,21,495.30
2010,07,01,12,22,541.00
2010,07,01,12,23,554.00
2010,07,01,12,24,657.90
2010,07,01,12,25,1034.60
2010,07,01,12,26,1016.00
2010,07,01,12,27,972.40
2010,07,01,12,28,1007.10
2010,07,01,12,29,1004.20
2010,07,01,12,30,1042.10
2010,07,01,12,31,1014.40
2010,07,01,12,32,967.90
2010,07,01,12,33,921.30
2010,07,01,12,34,902.90
2010,07,01,12,35,886.30
2010,07,01,12,36,743.20
2010,07,01,12,37,703.50
2010,07,01,12,38,690.70
2010,07,01,12,39,692.50
2010,07,01,12,40,681.30
2010,07,01,12,41,697.20
2010,07,01,12,42,724.00
2010,07,01,12,43,803.50
2010,07,01,12,44,867.80
2010,07,01,12,45,827.30
2010,07,01,12,46,796.70
2010,07,01,12,47,721.10
2010,07,01,12,48,692.20
2010,07,01,12,49,651.00
2010,07,01,12,50,633.00
2010,07,01,12,51,586.60
2010,07,01,12,52,553.10
2010,07,01,12,53,537.30
2010,07,01,12,54,536.90
2010,07,01,12,55,548.00
2010,07,01,12,56,569.30
2010,07,01,12,57,574.00
2010,07,01,12,58,588.40
2010,07,01,12,59,596.20
2010,07,01,13,00,620.50
2010,07,01,13,01,640.70
2010,07,01,13,02,698.50
2010,07,01,13,03,723.10
2010,07,01,13,04,695.60
2010,07,01,13,05,710.70
2010,07,01,13,06,723.70
2010,07,01,13,07,640.70
2010,07,01,13,08,573.00
2010,07,01,13,09,531.60
2010,07,01,13,10,510.80
2010,07,01,13,11,503.70
2010,07,01,13,12,507.40
2010,07,01,13,13,512.50
2010,07,01,13,14,511.60
2010,07,01,13,15,512.50
2010,07,01,13,16,520.50
2010,07,01,13,17,537.80
2010,07,01,13,18,556.90
2010,07,01,13,19,575.90
2010,07,01,13,20,591.70
2010,07,01,13,21,564.30
2010,07,01,13,22,555.80
2010,07,01,13,23,563.60
2010,07,01,13,24,620.90
2010,07,01,13,25,616.30
2010,07,01,13,26,598.00
2010,07,01,13,27,684.00
2010,07,01,13,28,715.00
2010,07,01,13,29,641.30
2010,07,01,13,30,637.80
2010,07,01,13,31,660.20
2010,07,01,13,32,713.50
2010,07,01,13,33,740.70
2010,07,01,13,34,659.20
2010,07,01,13,35,691.60
2010,07,01,13,36,714.70
2010,07,01,13,37,722.00
2010,07,01,13,38,815.90
2010,07,01,13,39,855.10
2010,07,01,13,40,856.00
2010,07,01,13,41,805.90
2010,07,01,13,42,713.50
2010,07,01,13,43,722.30
2010,07,01,13,44,726.00
2010,07,01,13,45,608.90
2010,07,01,13,46,619.40
2010,07,01,13,47,614.50
2010,07,01,13,48,611.40
2010,07,01,13,49,611.10
2010,07,01,13,50,613.00
2010,07,01,13,51,603.20
2010,07,01,13,52,595.60
2010,07,01,13,53,605.30
2010,07,01,13,54,603.60
2010,07,01,13,55,605.30
2010,07,01,13,56,638.30
2010,07,01,13,57,715.20
2010,07,01,13,58,728.50
2010,07,01,13,59,745.90
2010,07,01,14,00,736.40
2010,07,01,14,01,688.00
2010,07,01,14,02,665.60
2010,07,01,14,03,644.30
2010,07,01,14,04,590.20
2010,07,01,14,05,528.40
2010,07,01,14,06,480.10
2010,07,01,14,07,428.90
2010,07,01,14,08,428.30
2010,07,01,14,09,467.20
2010,07,01,14,10,460.60
2010,07,01,14,11,454.70
2010,07,01,14,12,441.40
2010,07,01,14,13,418.20
2010,07,01,14,14,399.20
2010,07,01,14,15,397.70
2010,07,01,14,16,409.70
2010,07,01,14,17,433.40
2010,07,01,14,18,470.70
2010,07,01,14,19,539.20
2010,07,01,14,20,618.00
2010,07,01,14,21,610.00
2010,07,01,14,22,562.30
2010,07,01,14,23,467.00
2010,07,01,14,24,462.80
2010,07,01,14,25,473.00
2010,07,01,14,26,497.20
2010,07,01,14,27,515.50
2010,07,01,14,28,495.30
2010,07,01,14,29,509.20
2010,07,01,14,30,503.30
2010,07,01,14,31,485.60
2010,07,01,14,32,468.70
2010,07,01,14,33,457.90
2010,07,01,14,34,443.80
2010,07,01,14,35,427.30
2010,07,01,14,36,412.20
2010,07,01,14,37,398.60
2010,07,01,14,38,397.00
2010,07,01,14,39,372.50
2010,07,01,14,40,351.00
2010,07,01,14,41,338.10
2010,07,01,14,42,328.90
2010,07,01,14,43,321.00
2010,07,01,14,44,314.00
2010,07,01,14,45,306.40
2010,07,01,14,46,300.80
2010,07,01,14,47,297.80
2010,07,01,14,48,297.00
2010,07,01,14,49,297.00
2010,07,01,14,50,301.70
2010,07,01,14,51,307.90
2010,07,01,14,52,316.00
2010,07,01,14,53,325.10
2010,07,01,14,54,334.10
2010,07,01,14,55,342.40
2010,07,01,14,56,344.70
2010,07,01,14,57,341.40
2010,07,01,14,58,334.20
2010,07,01,14,59,323.30
2010,07,01,15,00,314.50
2010,07,01,15,01,312.60
2010,07,01,15,02,304.00
2010,07,01,15,03,305.40
2010,07,01,15,04,311.50
2010,07,01,15,05,320.50
2010,07,01,15,06,343.50
2010,07,01,15,07,385.60
2010,07,01,15,08,399.50
2010,07,01,15,09,413.00
2010,07,01,15,10,408.50
2010,07,01,15,11,399.20
2010,07,01,15,12,402.70
2010,07,01,15,13,408.00
2010,07,01,15,14,439.60
2010,07,01,15,15,468.50
2010,07,01,15,16,484.00
2010,07,01,15,17,488.00
2010,07,01,15,18,510.20
2010,07,01,15,19,506.20
2010,07,01,15,20,506.90
2010,07,01,15,21,511.70
2010,07,01,15,22,519.30
2010,07,01,15,23,513.70
2010,07,01,15,24,536.20
2010,07,01,15,25,536.70
2010,07,01,15,26,545.20
2010,07,01,15,27,553.20
2010,07,01,15,28,530.90
2010,07,01,15,29,504.50
2010,07,01,15,30,513.90
2010,07,01,15,31,522.60
2010,07,01,15,32,496.30
2010,07,01,15,33,506.90
2010,07,01,15,34,556.30
2010,07,01,15,35,614.90
2010,07,01,15,36,621.50
2010,07,01,15,37,619.50
2010,07,01,15,38,610.30
2010,07,01,15,39,579.30
2010,07,01,15,40,551.90
2010,07,01,15,41,515.50
2010,07,01,15,42,492.50
2010,07,01,15,43,480.60
2010,07,01,15,44,455.00
2010,07,01,15,45,442.40
2010,07,01,15,46,425.50
2010,07,01,15,47,409.00
2010,07,01,15,48,394.70
2010,07,01,15,49,384.60
2010,07,01,15,50,384.60
2010,07,01,15,51,380.50
2010,07,01,15,52,373.30
2010,07,01,15,53,379.30
2010,07,01,15,54,379.90
2010,07,01,15,55,377.10
2010,07,01,15,56,374.00
2010,07,01,15,57,374.00
2010,07,01,15,58,371.90
2010,07,01,15,59,371.00
2010,07,01,16,00,372.70
2010,07,01,16,01,371.00
2010,07,01,16,02,371.80
2010,07,01,16,03,371.80
2010,07,01,16,04,371.00
2010,07,01,16,05,372.60
2010,07,01,16,06,374.00
2010,07,01,16,07,374.00
2010,07,01,16,08,375.70
2010,07,01,16,09,380.90
2010,07,01,16,10,385.70
2010,07,01,16,11,391.20
2010,07,01,16,12,398.00
2010,07,01,16,13,405.80
2010,07,01,16,14,412.30
2010,07,01,16,15,419.20
2010,07,01,16,16,427.00
2010,07,01,16,17,442.40
2010,07,01,16,18,461.50
2010,07,01,16,19,477.00
2010,07,01,16,20,493.00
2010,07,01,16,21,518.80
2010,07,01,16,22,549.10
2010,07,01,16,23,579.80
2010,07,01,16,24,603.30
2010,07,01,16,25,616.50
2010,07,01,16,26,629.70
2010,07,01,16,27,646.40
2010,07,01,16,28,652.00
2010,07,01,16,29,682.90
2010,07,01,16,30,704.20
2010,07,01,16,31,711.70
2010,07,01,16,32,717.20
2010,07,01,16,33,722.90
2010,07,01,16,34,732.10
2010,07,01,16,35,736.60
2010,07,01,16,36,734.10
2010,07,01,16,37,725.20
2010,07,01,16,38,699.20
2010,07,01,16,39,657.30
2010,07,01,16,40,628.50
2010,07,01,16,41,605.80
2010,07,01,16,42,579.80
2010,07,01,16,43,554.40
2010,07,01,16,44,532.40
2010,07,01,16,45,474.70
2010,07,01,16,46,478.50
2010,07,01,16,47,498.20
2010,07,01,16,48,467.60
2010,07,01,16,49,463.20
2010,07,01,16,50,459.70
2010,07,01,16,51,420.50
2010,07,01,16,52,415.50
2010,07,01,16,53,385.30
2010,07,01,16,54,357.70
2010,07,01,16,55,347.90
2010,07,01,16,56,327.70
2010,07,01,16,57,302.80
2010,07,01,16,58,269.90
2010,07,01,16,59,246.90
2010,07,01,17,00,226.30
2010,07,01,17,01,208.30
2010,07,01,17,02,197.50
2010,07,01,17,03,187.70
2010,07,01,17,04,181.10
2010,07,01,17,05,178.80
2010,07,01,17,06,178.00
2010,07,01,17,07,177.00
2010,07,01,17,08,174.80
2010,07,01,17,09,174.00
2010,07,01,17,10,173.90
2010,07,01,17,11,172.30